Retour au catalogue

STARLINK-32426

ActifCommunicationsVLEO
NORAD 61681·PAYLOAD·🇺🇸 United States

Lancé Oct 26, 2024 depuis Cape Canaveral Space Force Station

Loading…

Prochains Passages (prochaines 24 heures)

TLE

FraisSource: CelesTrak SupGP

Époque: Sep 15, 2026, 02:10 UTC

1 61681C 24193W   26258.09076389  .00025713  00000+0  75956-3 0  2586
2 61681  53.1577 290.9228 0001008  93.5836 115.6812 15.34384219    12

Suivez STARLINK-32426 en temps réel avec AllMySat

Download on the App Store